Time,TemperatureF,DewpointF,PressureIn,WindDirection,WindDirectionDegrees,WindSpeedMPH,WindSpeedGustMPH,Humidity,HourlyPrecipIn,Conditions,Clouds,dailyrainin,SoftwareType,DateUTC
2013-02-10 21:58:00,53.8,33.9,29.87,NNW,338,0.0,0.0,47,0.00,,,0.00,WUHU216HW,2013-02-11 03:58:00,
2013-02-10 22:03:00,54.0,34.1,29.87,NNW,338,0.0,0.0,47,0.00,,,0.00,WUHU216HW,2013-02-11 04:03:00,
2013-02-10 22:08:00,53.6,33.8,29.87,NNW,338,0.0,0.4,47,0.00,,,0.00,WUHU216HW,2013-02-11 04:08:00,
2013-02-10 22:13:00,53.5,34.2,29.87,NNW,338,0.0,0.4,48,0.00,,,0.00,WUHU216HW,2013-02-11 04:13:00,
2013-02-10 22:18:00,53.3,34.0,29.88,NNW,338,0.4,0.4,48,0.00,,,0.00,WUHU216HW,2013-02-11 04:18:00,
2013-02-10 22:23:00,53.1,33.8,29.88,NNW,338,0.4,0.4,48,0.00,,,0.00,WUHU216HW,2013-02-11 04:23:00,
2013-02-10 22:28:00,52.9,33.7,29.88,NNW,338,0.0,0.4,48,0.00,,,0.00,WUHU216HW,2013-02-11 04:28:00,
2013-02-10 22:33:00,52.7,33.6,29.88,NNW,338,0.0,0.4,48,0.00,,,0.00,WUHU216HW,2013-02-11 04:33:00,
2013-02-10 22:38:00,52.2,33.6,29.88,NNW,338,0.0,0.0,49,0.00,,,0.00,WUHU216HW,2013-02-11 04:38:00,
2013-02-10 22:43:00,52.2,33.6,29.89,NNW,338,0.0,0.0,49,0.00,,,0.00,WUHU216HW,2013-02-11 04:43:00,
2013-02-10 22:48:00,52.0,34.0,29.89,NNW,338,0.0,0.0,50,0.00,,,0.00,WUHU216HW,2013-02-11 04:48:00,
2013-02-10 22:53:00,51.8,33.3,29.89,NNW,338,0.0,0.0,49,0.00,,,0.00,WUHU216HW,2013-02-11 04:53:00,
2013-02-10 22:58:00,51.7,33.7,29.89,NNW,338,0.4,1.3,50,0.00,,,0.00,WUHU216HW,2013-02-11 04:58:00,
2013-02-10 23:00:00,51.7,33.7,29.89,NNW,338,0.0,1.3,50,0.00,,,0.00,WUHU216HW,2013-02-11 05:00:00,
2013-02-10 23:05:00,51.5,33.5,29.89,NNW,338,0.0,1.3,50,0.00,,,0.00,WUHU216HW,2013-02-11 05:05:00,
2013-02-10 23:10:00,51.5,33.5,29.89,NNW,338,0.0,0.4,50,0.00,,,0.00,WUHU216HW,2013-02-11 05:10:00,
2013-02-10 23:15:00,51.1,33.7,29.90,NNW,338,0.0,0.0,51,0.00,,,0.00,WUHU216HW,2013-02-11 05:15:00,
2013-02-10 23:20:00,50.9,33.5,29.90,NNW,338,0.0,0.0,51,0.00,,,0.00,WUHU216HW,2013-02-11 05:20:00,
2013-02-10 23:25:00,50.8,33.8,29.90,NNW,338,0.0,0.0,52,0.00,,,0.00,WUHU216HW,2013-02-11 05:25:00,
2013-02-10 23:30:00,50.4,33.5,29.90,NNW,338,0.2,0.4,52,0.00,,,0.00,WUHU216HW,2013-02-11 05:30:00,
2013-02-10 23:35:00,50.2,33.3,29.90,NNW,338,0.0,0.4,52,0.00,,,0.00,WUHU216HW,2013-02-11 05:35:00,
2013-02-10 23:40:00,50.2,33.8,29.91,NW,315,0.2,1.1,53,0.00,,,0.00,WUHU216HW,2013-02-11 05:40:00,
2013-02-10 23:45:00,50.2,33.8,29.91,NW,315,0.0,1.1,53,0.00,,,0.00,WUHU216HW,2013-02-11 05:45:00,
2013-02-10 23:50:00,50.2,33.8,29.91,ENE,68,0.2,0.9,53,0.00,,,0.00,WUHU216HW,2013-02-11 05:50:00,
2013-02-10 23:55:00,50.0,34.0,29.91,NNW,338,0.4,0.9,54,0.00,,,0.00,WUHU216HW,2013-02-11 05:55:00,